H1 CPF 2 NER 2024 7 12 9 194 01 glonass143 H2 2007501 9143 46805 2024 7 12 0 0 0 2024 7 15 23 45 0 900 1 1 0 0 0 1 H9 10 0 60503 0.00000 0 -10222123.195 -4041741.158 -23003517.562 10 0 60503 900.00000 0 -9566728.343 -6784319.349 -22639093.540 10 0 60503 1800.00000 0 -9124695.280 -9496116.362 -21834430.002 10 0 60503 2700.00000 0 -8894183.143 -12108110.221 -20605260.667 10 0 60503 3600.00000 0 -8861239.090 -14553854.023 -18975568.688 10 0 60503 4500.00000 0 -9000518.076 -16772027.541 -16977113.720 10 0 60503 5400.00000 0 -9276497.103 -18708782.444 -14648808.239 10 0 60503 6300.00000 0 -9645131.680 -20319784.103 -12035955.490 10 0 60503 7200.00000 0 -10055883.626 -21571865.776 -9189364.142 10 0 60503 8100.00000 0 -10454033.824 -22444227.178 -6164357.086 10 0 60503 9000.00000 0 -10783181.566 -22929128.617 -3019693.890 10 0 60503 9900.00000 0 -10987824.433 -23032052.957 183571.847 10 0 60503 10800.00000 0 -11015909.358 -22771330.024 3383277.836 10 0 60503 11700.00000 0 -10821246.899 -22177240.543 6517357.924 10 0 60503 12600.00000 0 -10365686.665 -21290638.375 9525042.925 10 0 60503 13500.00000 0 -9620962.002 -20161149.856 12348034.260 10 0 60503 14400.00000 0 -8570126.075 -18845026.481 14931627.924 10 0 60503 15300.00000 0 -7208518.623 -17402741.354 17225767.470 10 0 60503 16200.00000 0 -5544222.340 -15896430.187 19186006.267 10 0 60503 17100.00000 0 -3597988.986 -14387283.723 20774361.230 10 0 60503 18000.00000 0 -1402637.358 -12933000.168 21960042.307 10 0 60503 18900.00000 0 998053.032 -11585403.427 22720044.457 10 0 60503 19800.00000 0 3550908.025 -10388325.832 23039591.330 10 0 60503 20700.00000 0 6195321.074 -9375843.047 22912422.491 10 0 60503 21600.00000 0 8865531.969 -8570934.160 22340918.768 10 0 60503 22500.00000 0 11493129.088 -7984622.445 21336063.073 10 0 60503 23400.00000 0 14009672.863 -7615632.460 19917236.866 10 0 60503 24300.00000 0 16349332.818 -7450577.769 18111855.365 10 0 60503 25200.00000 0 18451429.627 -7464671.625 15954847.426 10 0 60503 26100.00000 0 20262777.010 -7622931.042 13487989.063 10 0 60503 27000.00000 0 21739726.163 -7881824.024 10759102.321 10 0 60503 27900.00000 0 22849827.356 -8191290.823 7821134.090 10 0 60503 28800.00000 0 23573038.851 -8497054.087 4731132.035 10 0 60503 29700.00000 0 23902432.081 -8743120.155 1549137.190 10 0 60503 30600.00000 0 23844363.016 -8874365.227 -1662985.298 10 0 60503 31500.00000 0 23418102.058 -8839096.148 -4842754.071 10 0 60503 32400.00000 0 22654937.850 -8591476.241 -7928293.972 10 0 60503 33300.00000 0 21596792.687 -8093712.087 -10859548.282 10 0 60503 34200.00000 0 20294408.088 -7317907.156 -13579456.151 10 0 60503 35100.00000 0 18805177.427 -6247502.260 -16035071.351 10 0 60503 36000.00000 0 17190717.526 -4878240.393 -18178599.749 10 0 60503 36900.00000 0 15514282.078 -3218613.773 -19968334.625 10 0 60503 37800.00000 0 13838126.399 -1289772.924 -21369471.287 10 0 60503 38700.00000 0 12220934.729 875099.492 -22354785.024 10 0 60503 39600.00000 0 10715418.429 3231924.743 -22905159.308 10 0 60503 40500.00000 0 9366185.830 5727327.130 -23009954.300 10 0 60503 41400.00000 0 8207972.711 8300629.809 -22667208.942 10 0 60503 42300.00000 0 7264306.922 10886164.412 -21883673.165 10 0 60503 43200.00000 0 6546662.138 13415798.440 -20674670.082 10 0 60503 44100.00000 0 6054134.987 15821575.406 -19063791.262 10 0 60503 45000.00000 0 5773657.700 18038357.978 -17082431.382 10 0 60503 45900.00000 0 5680735.827 20006364.351 -14769171.606 10 0 60503 46800.00000 0 5740678.521 21673492.595 -12169023.916 10 0 60503 47700.00000 0 5910268.164 22997336.575 -9332551.365 10 0 60503 48600.00000 0 6139797.712 23946810.050 -6314881.568 10 0 60503 49500.00000 0 6375388.736 24503311.983 -3174632.870 10 0 60503 50400.00000 0 6561491.435 24661385.325 27225.660 10 0 60503 51300.00000 0 6643460.385 24428842.832 3228558.006 10 0 60503 52200.00000 0 6570096.796 23826355.745 6367265.621 10 0 60503 53100.00000 0 6296049.614 22886523.638 9382488.970 10 0 60503 54000.00000 0 5783973.938 21652465.349 12215782.986 10 0 60503 54900.00000 0 5006355.602 20175990.679 14812243.944 10 0 60503 55800.00000 0 3946924.845 18515429.860 17121566.336 10 0 60503 56700.00000 0 2601599.283 16733211.710 19099009.954 10 0 60503 57600.00000 0 978916.001 14893291.497 20706259.255 10 0 60503 58500.00000 0 -900066.167 13058535.444 21912159.209 10 0 60503 59400.00000 0 -3002391.239 11288170.310 22693314.221 10 0 60503 60300.00000 0 -5284332.930 9635403.498 23034539.223 10 0 60503 61200.00000 0 -7692978.378 8145311.995 22929154.652 10 0 60503 62100.00000 0 -10168204.631 6853087.206 22379119.763 10 0 60503 63000.00000 0 -12644967.463 5782708.121 21395001.474 10 0 60503 63900.00000 0 -15055809.043 4946097.543 19995778.809 10 0 60503 64800.00000 0 -17333481.639 4342796.278 18208485.862 10 0 60503 65700.00000 0 -19413579.375 3960168.707 16067699.112 10 0 60503 66600.00000 0 -21237069.167 3774131.145 13614877.852 10 0 60503 67500.00000 0 -22752615.665 3750372.465 10897569.379 10 0 60503 68400.00000 0 -23918603.065 3846015.766 7968493.318 10 0 60503 69300.00000 0 -24704768.842 4011651.035 4884522.191 10 0 60503 70200.00000 0 -25093380.337 4193652.822 1705577.603 10 0 60503 71100.00000 0 -25079904.129 4336684.495 -1506536.500 10 0 60503 72000.00000 0 -24673139.334 4386282.396 -4689340.417 10 0 60503 72900.00000 0 -23894808.646 4291409.407 -7780900.987 10 0 60503 73800.00000 0 -22778623.951 4006868.521 -10721044.927 10 0 60503 74700.00000 0 -21368865.722 3495472.731 -13452538.542 10 0 60503 75600.00000 0 -19718536.143 2729877.844 -15922209.904 10 0 60503 76500.00000 0 -17887163.987 1693999.176 -18081990.779 10 0 60503 77400.00000 0 -15938354.079 383950.788 -19889857.388 10 0 60503 78300.00000 0 -13937184.813 -1191533.678 -21310651.281 10 0 60503 79200.00000 0 -11947563.366 -3011217.466 -22316764.286 10 0 60503 80100.00000 0 -10029649.859 -5042010.577 -22888674.269 10 0 60503 81000.00000 0 -8237458.341 -7240126.542 -23015321.638 10 0 60503 81900.00000 0 -6616734.760 -9552698.316 -22694319.665 10 0 60503 82800.00000 0 -5203200.092 -11919786.101 -21931995.049 10 0 60503 83700.00000 0 -4021231.183 -14276693.581 -20743258.375 10 0 60503 84600.00000 0 -3083033.214 -16556496.121 -19151307.435 10 0 60503 85500.00000 0 -2388336.961 -18692675.615 -17187169.536 10 0 60504 0.00000 0 -1924631.903 -20621752.097 -14889092.227 10 0 60504 900.00000 0 -1667923.417 -22285803.542 -12301793.234 10 0 60504 1800.00000 0 -1583981.098 -23634766.419 -9475587.599 10 0 60504 2700.00000 0 -1630023.244 -24628424.783 -6465405.133 10 0 60504 3600.00000 0 -1756765.753 -25238002.687 -3329720.517 10 0 60504 4500.00000 0 -1910747.528 -25447295.029 -129415.974 10 0 60504 5400.00000 0 -2036833.323 -25253290.142 3073400.965 10 0 60504 6300.00000 0 -2080787.649 -24666258.881 6216601.458 10 0 60504 7200.00000 0 -1991810.578 -23709307.320 9239237.609 10 0 60504 8100.00000 0 -1724928.100 -22417412.555 12082719.756 10 0 60504 9000.00000 0 -1243136.024 -20835982.561 14691946.221 10 0 60504 9900.00000 0 -519206.931 -19019000.727 17016364.050 10 0 60504 10800.00000 0 462916.098 -17026832.714 19010940.873 10 0 60504 11700.00000 0 1707197.919 -14923786.971 20637029.876 10 0 60504 12600.00000 0 3205101.209 -12775530.195 21863111.958 10 0 60504 13500.00000 0 4935705.886 -10646464.655 22665401.572 10 0 60504 14400.00000 0 6866354.287 -8597175.632 23028305.221 10 0 60504 15300.00000 0 8953796.632 -6682054.170 22944724.203 10 0 60504 16200.00000 0 11145790.689 -4947193.001 22416195.887 10 0 60504 17100.00000 0 13383090.776 -3428642.198 21452870.623 10 0 60504 18000.00000 0 15601744.960 -2151096.408 20073324.176 10 0 60504 18900.00000 0 17735606.370 -1127067.735 18304208.470 10 0 60504 19800.00000 0 19718955.268 -356578.360 16179746.329 10 0 60504 20700.00000 0 21489123.435 172614.490 13741078.831 10 0 60504 21600.00000 0 22989011.775 484270.780 11035476.782 10 0 60504 22500.00000 0 24169395.962 612428.617 8115430.560 10 0 60504 23400.00000 0 24990923.207 599726.141 5037635.303 10 0 60504 24300.00000 0 25425715.764 495355.370 1861890.725 10 0 60504 25200.00000 0 25458513.013 352734.839 -1350063.077 10 0 60504 26100.00000 0 25087303.109 227000.139 -4535750.814 10 0 60504 27000.00000 0 24323416.778 172419.505 -7633184.095 10 0 60504 27900.00000 0 23191078.550 239845.076 -10582075.765 10 0 60504 28800.00000 0 21726433.794 474309.119 -13325021.823 10 0 60504 29700.00000 0 19976092.280 912868.439 -15808626.949 10 0 60504 30600.00000 0 17995249.479 1582789.673 -17984550.886 10 0 60504 31500.00000 0 15845464.793 2500153.577 -19810454.612 10 0 60504 32400.00000 0 13592190.261 3668938.545 -21250827.509 10 0 60504 33300.00000 0 11302153.709 5080623.144 -22277679.299 10 0 60504 34200.00000 0 9040706.184 6714325.341 -22871083.368 10 0 60504 35100.00000 0 6869244.706 8537473.362 -23019561.230 10 0 60504 36000.00000 0 4842817.849 10506980.639 -22720301.074 10 0 60504 36900.00000 0 3008013.676 12570876.022 -21979206.615 10 0 60504 37800.00000 0 1401217.381 14670321.343 -20810775.797 10 0 60504 38700.00000 0 47310.223 16741932.140 -19237812.132 10 0 60504 39600.00000 0 -1041137.330 18720304.636 -17290974.643 10 0 60504 40500.00000 0 -1864146.209 20540643.444 -15008175.491 10 0 60504 41400.00000 0 -2434073.197 22141380.263 -12433837.227 10 0 60504 42300.00000 0 -2774831.837 23466674.162 -9618024.374 10 0 60504 43200.00000 0 -2920624.397 24468689.080 -6615466.453 10 0 60504 44100.00000 0 -2914239.946 25109553.510 -3484491.688 10 0 60504 45000.00000 0 -2804991.756 25362920.688 -285892.413 10 0 60504 45900.00000 0 -2646382.255 25215064.447 2918255.529 10 0 60504 46800.00000 0 -2493595.043 24665465.378 6065796.285 10 0 60504 47700.00000 0 -2400920.502 23726863.323 9095696.884 10 0 60504 48600.00000 0 -2419224.098 22424774.550 11949226.272 10 0 60504 49500.00000 0 -2593564.401 20796494.250 14571087.863 10 0 60504 50400.00000 0 -2961061.360 18889626.289 16910484.099 10 0 60504 51300.00000 0 -3549104.670 16760201.673 18922093.045 10 0 60504 52200.00000 0 -4373977.733 14470463.916 20566938.911 10 0 60504 53100.00000 0 -5439955.376 12086413.101 21813140.494 10 0 60504 54000.00000 0 -6738913.727 9675210.025 22636523.886 10 0 60504 54900.00000 0 -8250469.485 7302547.399 23021088.333 10 0 60504 55800.00000 0 -9942643.961 5030096.219 22959316.670 10 0 60504 56700.00000 0 -11773025.587 2913132.236 22452324.536 10 0 60504 57600.00000 0 -13690384.005 998440.008 21509845.291 10 0 60504 58500.00000 0 -15636670.044 -677419.309 20150050.411 10 0 60504 59400.00000 0 -17549319.747 -2089405.170 18399208.019 10 0 60504 60300.00000 0 -19363767.661 -3224806.449 16291185.073 10 0 60504 61200.00000 0 -21016065.455 -4083528.463 13866801.713 10 0 60504 62100.00000 0 -22445497.020 -4677846.524 11173049.102 10 0 60504 63000.00000 0 -23597080.762 -5031636.528 8262184.892 10 0 60504 63900.00000 0 -24423853.922 -5179115.098 5190723.159 10 0 60504 64800.00000 0 -24888842.416 -5163142.582 2018337.958 10 0 60504 65700.00000 0 -24966632.451 -5033160.894 -1193298.215 10 0 60504 66600.00000 0 -24644476.710 -4842853.937 -4381718.147 10 0 60504 67500.00000 0 -23922887.383 -4647630.404 -7484881.711 10 0 60504 68400.00000 0 -22815690.008 -4502036.551 -10442391.165 10 0 60504 69300.00000 0 -21349534.950 -4457209.735 -13196675.212 10 0 60504 70200.00000 0 -19562886.481 -4558481.864 -15694117.825 10 0 60504 71100.00000 0 -17504531.535 -4843235.544 -17886108.996 10 0 60504 72000.00000 0 -15231670.709 -5339104.916 -19729996.256 10 0 60504 72900.00000 0 -12807671.640 -6062598.362 -21189918.045 10 0 60504 73800.00000 0 -10299579.024 -7018202.280 -22237502.598 10 0 60504 74700.00000 0 -7775485.636 -8198004.512 -22852418.804 10 0 60504 75600.00000 0 -5301874.273 -9581853.968 -23022768.654 10 0 60504 76500.00000 0 -2941041.404 -11138050.248 -22745314.044 10 0 60504 77400.00000 0 -748709.656 -12824534.626 -22025534.016 10 0 60504 78300.00000 0 1228072.026 -14590532.660 -20877511.773 10 0 60504 79200.00000 0 2952654.005 -16378579.725 -19323654.119 10 0 60504 80100.00000 0 4400066.670 -18126844.581 -17394249.130 10 0 60504 81000.00000 0 5557804.377 -19771653.691 -15126870.977 10 0 60504 81900.00000 0 6426081.653 -21250110.492 -12565643.697 10 0 60504 82800.00000 0 7017552.846 -22502699.873 -9760378.519 10 0 60504 83700.00000 0 7356508.964 -23475768.712 -6765601.723 10 0 60504 84600.00000 0 7477587.326 -24123778.604 -3639492.191 10 0 60504 85500.00000 0 7424050.026 -24411236.445 -442749.596 10 0 60505 0.00000 0 7245705.281 -24314222.173 2762584.246 10 0 60505 900.00000 0 6996560.351 -23821449.804 5914329.500 10 0 60505 1800.00000 0 6732306.223 -22934817.811 8951370.076 10 0 60505 2700.00000 0 6507740.438 -21669425.925 11814835.528 10 0 60505 3600.00000 0 6374237.294 -20053057.949 14449236.122 10 0 60505 4500.00000 0 6377372.084 -18125152.286 16803531.172 10 0 60505 5400.00000 0 6554799.446 -15935303.096 18832110.342 10 0 60505 6300.00000 0 6934475.020 -13541354.178 20495669.719 10 0 60505 7200.00000 0 7533295.224 -11007164.406 21761966.504 10 0 60505 8100.00000 0 8356212.455 -8400136.777 22606438.603 10 0 60505 9000.00000 0 9395863.315 -5788612.653 23012677.845 10 0 60505 9900.00000 0 10632726.232 -3239238.208 22972748.150 10 0 60505 10800.00000 0 12035802.986 -814411.087 22487342.697 10 0 60505 11700.00000 0 13563796.980 1430088.016 21565776.895 10 0 60505 12600.00000 0 15166740.506 3447181.631 20225816.782 10 0 60505 13500.00000 0 16788004.475 5200213.895 18493345.356 10 0 60505 14400.00000 0 18366608.009 6664230.326 16401872.247 10 0 60505 15300.00000 0 19839732.345 7826766.137 13991895.040 10 0 60505 16200.00000 0 21145334.578 8688110.556 11310123.492 10 0 60505 17100.00000 0 22224751.989 9261036.336 8408580.618 10 0 60505 18000.00000 0 23025187.511 9570005.967 5343597.356 10 0 60505 18900.00000 0 23501971.298 9649888.231 2174719.884 10 0 60505 19800.00000 0 23620502.389 9544239.488 -1036449.251 10 0 60505 20700.00000 0 23357787.463 9303222.752 -4227453.306 10 0 60505 21600.00000 0 22703510.599 8981253.211 -7336202.827 10 0 60505 22500.00000 0 21660587.614 8634470.697 -10302191.811 10 0 60505 23400.00000 0 20245180.432 8318147.168 -13067683.856 10 0 60505 24300.00000 0 18486169.879 8084140.143 -15578844.236 10 0 60505 25200.00000 0 16424108.283 7978501.078 -17786795.002 10 0 60505 26100.00000 0 14109695.416 8039341.014 -19648571.849 10 0 60505 27000.00000 0 11601841.446 8295044.799 -21127963.720 10 0 60505 27900.00000 0 8965397.903 8762910.147 -22196218.647 10 0 60505 28800.00000 0 6268651.597 9448269.657 -22832602.155 10 0 60505 29700.00000 0 3580686.109 10344133.290 -23024797.664 10 0 60505 30600.00000 0 968720.802 11431366.654 -22769141.520 10 0 60505 31500.00000 0 -1504462.023 12679397.771 -22070688.538 10 0 60505 32400.00000 0 -3782895.197 14047422.654 -20943107.295 10 0 60505 33300.00000 0 -5819511.764 15486059.019 -19408407.618 10 0 60505 34200.00000 0 -7577851.311 16939378.572 -17496505.957 10 0 60505 35100.00000 0 -9033317.782 18347232.413 -15244637.394 10 0 60505 36000.00000 0 -10173937.952 19647771.801 -12696625.973 10 0 60505 36900.00000 0 -11000590.664 20780058.256 -9902027.787 10 0 60505 37800.00000 0 -11526699.149 21686653.307 -6915163.729 10 0 60505 38700.00000 0 -11777401.311 22316079.008 -3794060.927 10 0 60505 39600.00000 0 -11788234.626 22625045.856 -599323.764 10 0 60505 40500.00000 0 -11603392.681 22580354.562 2607043.338 10 0 60505 41400.00000 0 -11273628.153 22160391.919 5762838.306 10 0 60505 42300.00000 0 -10853891.710 21356158.079 8806865.480 10 0 60505 43200.00000 0 -10400807.125 20171782.290 11680118.024 10 0 60505 44100.00000 0 -9970089.472 18624505.509 14326916.014 10 0 60505 45000.00000 0 -9614015.344 16744130.542 16695978.510 10 0 60505 45900.00000 0 -9379051.548 14571962.455 18741409.527 10 0 60505 46800.00000 0 -9303741.852 12159282.927 20423579.577 10 0 60505 47700.00000 0 -9416940.383 9565421.428 21709886.579 10 0 60505 48600.00000 0 -9736465.746 6855502.447 22575382.262 10 0 60505 49500.00000 0 -10268232.396 4097961.180 23003252.682 10 0 60505 50400.00000 0 -11005896.011 1361929.503 22985144.062 10 0 60505 51300.00000 0 -11931028.379 -1285400.754 22521327.850 10 0 60505 52200.00000 0 -13013815.427 -3781329.252 21620701.696 10 0 60505 53100.00000 0 -14214250.306 -6070008.667 20300625.812 10 0 60505 54000.00000 0 -15483772.917 -8104519.362 18586597.096 10 0 60505 54900.00000 0 -16767288.480 -9848571.806 16511766.283 10 0 60505 55800.00000 0 -18005481.680 -11277766.465 14116306.295 10 0 60505 56700.00000 0 -19137330.177 -12380359.010 11446642.890 10 0 60505 57600.00000 0 -20102712.435 -13157499.120 8554561.436 10 0 60505 58500.00000 0 -20845000.250 -13622932.978 5496206.418 10 0 60505 59400.00000 0 -21313526.474 -13802182.131 2330992.597 10 0 60505 60300.00000 0 -21465823.160 -13731233.476 -879551.092 10 0 60505 61200.00000 0 -21269534.612 -13454795.966 -4072982.104 10 0 60505 62100.00000 0 -20703923.280 -13024198.183 -7187165.366 10 0 60505 63000.00000 0 -19760903.508 -12495016.386 -10161490.240 10 0 60505 63900.00000 0 -18445558.102 -11924534.293 -12938058.696 10 0 60505 64800.00000 0 -16776114.636 -11369143.083 -15462820.550 10 0 60505 65700.00000 0 -14783381.383 -10881792.715 -17686632.826 10 0 60505 66600.00000 0 -12509665.742 -10509603.367 -19566221.868 10 0 60505 67500.00000 0 -10007219.926 -10291738.891 -21065029.071 10 0 60505 68400.00000 0 -7336278.651 -10257632.800 -22153923.600 10 0 60505 69300.00000 0 -4562770.680 -10425642.202 -22811768.290 10 0 60505 70200.00000 0 -1755799.614 -10802186.702 -23025827.997 10 0 60505 71100.00000 0 1015001.173 -11381408.654 -22792012.880 10 0 60505 72000.00000 0 3682129.508 -12145368.979 -22114952.330 10 0 60505 72900.00000 0 6182780.933 -13064770.081 -21007898.601 10 0 60505 73800.00000 0 8461214.600 -14100175.172 -19492462.439 10 0 60505 74700.00000 0 10470820.878 -15203672.354 -17598186.217 10 0 60505 75600.00000 0 12175805.745 -16320913.124 -15361963.200 10 0 60505 76500.00000 0 13552423.095 -17393439.209 -12827314.464 10 0 60505 77400.00000 0 14589705.142 -18361199.518 -10043537.804 10 0 60505 78300.00000 0 15289662.142 -19165151.039 -7064745.411 10 0 60505 79200.00000 0 15666944.922 -19749834.009 -3948809.269 10 0 60505 80100.00000 0 15747986.225 -20065812.801 -756235.077 10 0 60505 81000.00000 0 15569658.643 -20071879.741 2451013.160 10 0 60505 81900.00000 0 15177507.135 -19736929.074 5610714.855 10 0 60505 82800.00000 0 14623631.761 -19041422.301 8661597.362 10 0 60505 83700.00000 0 13964310.729 -17978383.272 11544520.002 10 0 60505 84600.00000 0 13257464.400 -16553881.210 14203614.809 10 0 60505 85500.00000 0 12560067.308 -14786981.206 16587362.325 10 0 60506 0.00000 0 11925617.048 -12709164.076 18649582.030 10 0 60506 900.00000 0 11401765.881 -10363238.029 20350320.088 10 0 60506 1800.00000 0 11028214.991 -7801789.531 21656615.356 10 0 60506 2700.00000 0 10834958.236 -5085233.069 22543133.397 10 0 60506 3600.00000 0 10840949.628 -2279542.257 22992654.137 10 0 60506 4500.00000 0 11053249.944 546245.978 22996405.396 10 0 60506 5400.00000 0 11466688.423 3322651.953 22554235.899 10 0 60506 6300.00000 0 12064054.217 5982391.377 21674624.285 10 0 60506 7200.00000 0 12816810.280 8462923.009 20374523.480 10 0 60506 8100.00000 0 13686300.741 10708801.312 18679042.654 10 0 60506 9000.00000 0 14625402.188 12673737.314 16620971.874 10 0 60506 9900.00000 0 15580550.558 14322282.586 14240157.503 10 0 60506 10800.00000 0 16494059.384 15631066.564 11582739.284 10 0 60506 11700.00000 0 17306632.441 16589535.755 8700262.823 10 0 60506 12600.00000 0 17959965.214 17200163.948 5648683.925 10 0 60506 13500.00000 0 18399325.299 17478124.601 2487283.624 10 0 60506 14400.00000 0 18576002.238 17450439.284 -722485.117 10 0 60506 15300.00000 0 18449522.304 17154638.161 -3918196.315 10 0 60506 16200.00000 0 17989533.396 16636989.395 -7037671.574 10 0 60506 17100.00000 0 17177278.917 15950372.770 -10020197.806 10 0 60506 18000.00000 0 16006596.839 15151888.114 -12807717.362 10 0 60506 18900.00000 0 14484400.287 14300300.503 -15345966.416 10 0 60506 19800.00000 0 12630617.995 13453431.159 -17585538.565 10 0 60506 20700.00000 0 10477595.987 12665605.246 -19482852.210 10 0 60506 21600.00000 0 8068984.666 11985265.168 -21001002.442 10 0 60506 22500.00000 0 5458157.271 11452850.734 -22110480.653 10 0 60506 23400.00000 0 2706225.424 11099035.998 -22789747.945 10 0 60506 24300.00000 0 -120265.672 10943397.243 -23025651.402 10 0 60506 25200.00000 0 -2951866.528 10993568.071 -22813675.582 10 0 60506 26100.00000 0 -5718871.990 11244916.869 -22158024.767 10 0 60506 27000.00000 0 -8353979.289 11680759.698 -21071534.876 10 0 60506 27900.00000 0 -10794845.381 12273099.047 -19575417.184 10 0 60506 28800.00000 0 -12986437.805 12983856.691 -17698839.217 10 0 60506 29700.00000 0 -14883082.074 13766548.079 -15478351.270 10 0 60506 30600.00000 0 -16450121.402 14568327.124 -12957169.978 10 0 60506 31500.00000 0 -17665120.854 15332314.691 -10184333.086 10 0 60506 32400.00000 0 -18518567.129 16000112.150 -7213742.119 10 0 60506 33300.00000 0 -19014036.360 16514393.688 -4103111.785 10 0 60506 34200.00000 0 -19167824.594 16821467.746 -912846.841 10 0 60506 35100.00000 0 -19008058.114 16873699.405 2295131.502 10 0 60506 36000.00000 0 -18573322.535 16631691.475 5458586.606 10 0 60506 36900.00000 0 -17910869.614 16066132.311 8516171.410 10 0 60506 37800.00000 0 -17074478.257 15159232.498 11408614.011 10 0 60506 38700.00000 0 -16122060.381 13905689.846 14079861.084 10 0 60506 39600.00000 0 -15113112.686 12313141.932 16478157.325 10 0 60506 40500.00000 0 -14106121.448 10402086.782 18557040.639 10 0 60506 41400.00000 0 -13156029.063 8205274.334 20276234.593 10 0 60506 42300.00000 0 -12311868.192 5766593.197 21602421.696 10 0 60506 43200.00000 0 -11614662.104 3139497.923 22509883.418 10 0 60506 44100.00000 0 -11095678.616 385040.818 22980995.310 10 0 60506 45000.00000 0 -10775110.280 -2430411.443 23006568.187 10 0 60506 45900.00000 0 -10661235.776 -5237683.283 22586029.036 10 0 60506 46800.00000 0 -10750097.611 -7967415.456 21727438.023 10 0 60506 47700.00000 0 -11025709.879 -10552702.633 20447340.847 10 0 60506 48600.00000 0 -11460787.871 -12931635.194 18770458.498 10 0 60506 49500.00000 0 -12017969.644 -15049640.706 16729219.423 10 0 60506 50400.00000 0 -12651479.017 -16861528.401 14363141.984 10 0 60506 51300.00000 0 -13309160.818 -18333151.918 11718078.016 10 0 60506 52200.00000 0 -13934803.273 -19442621.089 8845331.053 10 0 60506 53100.00000 0 -14470649.910 -20181012.015 5800665.573 10 0 60506 54000.00000 0 -14859994.926 -20552545.546 2643225.950 10 0 60506 54900.00000 0 -15049751.866 -20574226.525 -565613.990 10 0 60506 55800.00000 0 -14992886.198 -20274958.903 -3763448.167 10 0 60506 56700.00000 0 -14650607.681 -19694174.127 -6888058.340 10 0 60506 57600.00000 0 -13994228.372 -18880030.927 -9878632.530 10 0 60506 58500.00000 0 -13006606.136 -17887263.044 -12676957.040 10 0 60506 59400.00000 0 -11683111.048 -16774766.429 -15228557.891 10 0 60506 60300.00000 0 -10032072.383 -15603028.608 -17483768.572 10 0 60506 61200.00000 0 -8074685.939 -14431509.538 -19398702.565 10 0 60506 62100.00000 0 -5844384.434 -13316085.186 -20936111.254 10 0 60506 63000.00000 0 -3385696.400 -12306662.180 -22066110.355 10 0 60506 63900.00000 0 -752640.680 -11445064.374 -22766760.729 10 0 60506 64800.00000 0 1993276.911 -10763280.351 -23024492.564 10 0 60506 65700.00000 0 4785381.520 -10282145.353 -22834365.074 10 0 60506 66600.00000 0 7554365.479 -10010512.591 -22200157.106 10 0 60506 67500.00000 0 10230937.486 -9944948.014 -21134287.386 10 0 60506 68400.00000 0 12748474.850 -10069960.506 -19657566.381 10 0 60506 69300.00000 0 15045568.846 -10358756.789 -17798784.980 10 0 60506 70200.00000 0 17068357.863 -10774488.273 -15594148.310 10 0 60506 71100.00000 0 18772551.939 -11271936.328 -13086565.949 10 0 60506 72000.00000 0 20125065.275 -11799564.070 -10324812.608 10 0 60506 72900.00000 0 21105189.760 -12301847.339 -7362575.819 10 0 60506 73800.00000 0 21705261.838 -12721785.893 -4257409.420 10 0 60506 74700.00000 0 21930796.251 -13003488.303 -1069613.459 10 0 60506 75600.00000 0 21800082.563 -13094721.086 2138937.448 10 0 60506 76500.00000 0 21343262.865 -12949314.216 5305994.331 10 0 60506 77400.00000 0 20600930.680 -12529321.383 8370139.193 10 0 60506 78300.00000 0 19622311.015 -11806843.767 11271972.061 10 0 60506 79200.00000 0 18463098.791 -10765440.405 13955256.971 10 0 60506 80100.00000 0 17183046.898 -9401065.544 16368005.014 10 0 60506 81000.00000 0 15843405.199 -7722493.253 18463474.097 10 0 60506 81900.00000 0 14504317.677 -5751210.804 20201066.821 10 0 60506 82800.00000 0 13222286.325 -3520784.412 21547109.935 10 0 60506 83700.00000 0 12047807.266 -1075722.636 22475501.153 10 0 60506 84600.00000 0 11023277.257 1530116.680 22968211.582 10 0 60506 85500.00000 0 10181257.368 4235511.186 23015634.580 99